Location: Harbor Hills
(33.7803°N, 118.3148°W)
Time: 17:13:47
(UTC+00:00)

Thor Agena Rocket - Pass Details

Date: 05 August 2024
Orbit: 756 x 805 km, 99.1° (Epoch: 06 September)

Event Time Altitude Azimuth Distance (km) Brightness Sun altitude
Rises 12:03:08 0° 10° (N) 3,224 7.4 -13.1°
Reaches altitude 10° 12:05:27 10° 9° (N) 2,292 6.5 -12.6°
Maximum altitude 12:10:28 72° 286° (WNW) 795 3.4 -11.7°
Drops below altitude 10° 12:15:26 10° 202° (SSW) 2,275 5.5 -10.8°
Enters shadow 12:16:19 - 201° (SSW) 2,632 5.8 -10.7°
